DMSP 5D-2 F13 DEB, 40405

Orbit data source: Space-Track

DMSP 5D-2 F13 DEB, 40405 is space debris in SSO originally from a launch on Fri, 24 Mar 1995 UTC launched from the Air Force Western Test Range (AFWTR). Debris objects in space refer to the collection of defunct objects orbiting the Earth. Examples of debris include non-operational satellites, rocket bodies, and fragments generated from explosions, collisions, or faulty payload assembly.

Loading next visibility...
Identifier
40405, 1995-015S
Orbit
SSO
Country
Flag of USUS
Related business
Manufacturer
Unknown
Mission
Spacecraft
Bus & Motor
Unknown
Mass
Unknown
Launch date (UTC)
1995-03-24 (31 years ago)
Launch vehicle
Unknown
Launch site
Air Force Western Test Range (AFWTR)
Object type
Payload
Rocket body
Debris
Shape & HBR
Unknown shape, 0.1 m
Radar Cross Section
Small (<0.1 m²)

Expand to show TLE details & history
Last TLE update: 8 hours ago

TLE from 8 hours ago
0 DMSP 5D-2 F13 DEB
1 40405U 95015S   26118.97403824  .00001827  00000-0  81797-3 0  9991
2 40405  98.8705 142.3787 0123441  83.9095 277.6131 14.19798998575989
Epoch: 2026-04-28T23:22Z
TLE epoch observation values (Epoch: 2026-04-28T23:22:36.903Z)
Latitude
0.00004°
Longitude
-65.21673°
Altitude
818.24 km
Speed
7.45 km/s
True Right ascension
09h 29m 30s
True Declination
0° 00' 00"
Sunlit
Object was in daylight at epoch
Visualization orbit readout
Latitude
Unknown
Longitude
Unknown
Altitude
Unknown
Speed
Unknown
Apparent Right ascension
Unknown
Apparent Declination
Unknown
Sunlit
N/A
Visualization observer readout
Local Sidereal Time
14:42:38
Azimuth
Unknown
Elevation
Unknown
Doppler factor
Unknown
Orbital elements
Apogee altitude
912.093 km
Perigee altitude
734.305 km
Semi-major axis
7,201.336 km
Eccentricity
0.01234
Inclination
98.8705°
RAAN
142.3787°
Arg. of periapsis
83.9095°
True anomaly
276.20831°
Mean anomaly
277.6131°
Eccentric anomaly
276.91097°
Mean motion
3.5516 °/min
Orbital period
101.36 mins
BSTAR
0.00081797
Loading maneuver chart data...
Computing Atmospheric mass density...

Documentation

Showing up to 5 results
|